This is the latest recevied weather packets stored in our database for station/object 5B4APJ-13. If no packets are shown the sender has not sent any weather packets the latest 10 day(s).
| Time | Temp. | Humidity | Pressure | Rain* | Wind** | Luminosity | Snow |
|---|---|---|---|---|---|---|---|
| 1777955223 | 11.67° C | 76% | 1011 hPa | 0 mm | 0 m/s | 65 W/m² | - |
| 1777954923 | 11.11° C | 76% | 1010.9 hPa | 0 mm | 0.45 m/s, 51° | 67 W/m² | - |
| 1777954624 | 11.11° C | 77% | 1010.8 hPa | 0 mm | 0.89 m/s, 346° | 61 W/m² | - |
| 1777954323 | 11.11° C | 76% | 1010.7 hPa | 0 mm | 0.89 m/s, 26° | 57 W/m² | - |
| 1777954023 | 11.11° C | 77% | 1010.7 hPa | 0 mm | 0.45 m/s, 68° | 50 W/m² | - |
| 1777953724 | 11.11° C | 77% | 1010.6 hPa | 0 mm | 0 m/s | 44 W/m² | - |
| 1777953424 | 10.56° C | 77% | 1010.5 hPa | 0 mm | 0.89 m/s, 112° | 37 W/m² | - |
| 1777953124 | 10.56° C | 78% | 1010.5 hPa | 0 mm | 0 m/s | 29 W/m² | - |
| 1777952823 | 10.56° C | 77% | 1010.5 hPa | 0 mm | 0.45 m/s, 113° | 23 W/m² | - |
| 1777952524 | 10.56° C | 77% | 1010.5 hPa | 0 mm | 0.89 m/s, 112° | 20 W/m² | - |
| 1777952223 | 10.56° C | 79% | 1010.3 hPa | 0 mm | 0.45 m/s, 127° | 16 W/m² | - |
| 1777951924 | 10.56° C | 77% | 1010.2 hPa | 0 mm | 0.45 m/s, 128° | 15 W/m² | - |
| 1777951623 | 10.56° C | 78% | 1010.3 hPa | 0 mm | 0 m/s | 12 W/m² | - |
| 1777951324 | 10.56° C | 76% | 1010.4 hPa | 0 mm | 0 m/s | 11 W/m² | - |
| 1777951024 | 10.56° C | 76% | 1010.2 hPa | 0 mm | 0.45 m/s, 128° | 9 W/m² | - |
| 1777950723 | 11.11° C | 76% | 1010.3 hPa | 0 mm | 0.45 m/s, 134° | 7 W/m² | - |
| 1777950424 | 10.56° C | 74% | 1010.3 hPa | 0 mm | 0 m/s | 5 W/m² | - |
| 1777950124 | 11.11° C | 75% | 1010.3 hPa | 0 mm | 0.45 m/s, 135° | 3 W/m² | - |
| 1777949823 | 10.56° C | 75% | 1010.1 hPa | 0 mm | 0 m/s | 2 W/m² | - |
| 1777949522 | 10.56° C | 74% | 1010.2 hPa | 0 mm | 0.89 m/s, 98° | 1 W/m² | - |
| 1777949223 | 10.56° C | 74% | 1009.9 hPa | 0 mm | 1.34 m/s, 96° | 1 W/m² | - |
| 1777948923 | 11.11° C | 74% | 1010.2 hPa | 0 mm | 0.89 m/s, 106° | 0 W/m² | - |
| 1777948623 | 11.11° C | 72% | 1009.9 hPa | 0 mm | 0.45 m/s, 39° | 0 W/m² | - |
| 1777948323 | 11.11° C | 71% | 1010.1 hPa | 0 mm | 0.45 m/s, 38° | 0 W/m² | - |
| 1777948023 | 11.11° C | 70% | 1010.3 hPa | 0 mm | 0.89 m/s, 12° | 0 W/m² | - |
* Rain latest hour (hover to see other rain measurements)
** Current wind speed in m/s (hover to see current wind gust speed)